Flag for U.S.A. Weather past 2 weeks in Pasadena, California, U.S.A.

Now
75 °F

Sunny.


Feels Like: 78 °F
Forecast: 60 / 91 °F
Wind: 5 mph from South

Location: Burbank-Glendale-Pasadena Airport

Current Time: Oct 1, 2014 at 7:25:39 PM

Latest Report: Oct 1, 2014 at 6:53 PM


Visibility: 10 mi

Pressure: 29.77 "Hg

Humidity: 55%

Dew point: 58 °F

Location of PasadenaLocation

Historic Weather in Pasadena — Graph

°F

Pasadena temperature yesterday

Maximum temperature yesterday: 87 °F (at 1:53 PM)
Minimum temperature yesterday: 60 °F (at 5:53 AM)
Average temperature yesterday: 73 °F

Past Weeks' High & Low Weather Summary

 TemperatureHumidityPressure
High95 °F (Sep 17, 11:53 AM)83% (Sep 19, 6:04 AM)29.97 "Hg (Sep 19, 6:04 AM)
Low59 °F (Sep 29, 5:53 AM)7% (Sep 24, 4:53 PM)29.66 "Hg (Sep 17, 4:53 PM)
Average73 °F54%29.83 "Hg
* Reported Sep 16 5:53 PM — Oct 1 5:53 PM, Pasadena, Weather by CustomWeather, © 2014

Note: Actual official high and low records may vary slightly from our data, if they occured in-between our weather recording intervals... More about our weather records

Advertising

Pasadena weather history for previous 24 hours

 ConditionsComfort  
Time TempWeatherWind HumidityBarometerVisibility
5:53 PM
Oct 1
79 °FSunny.7 mph42%29.75 "Hg10 mi
4:53 PM81 °FSunny.10 mph32%29.74 "Hg10 mi
3:53 PM81 °FSunny.10 mph37%29.73 "Hg10 mi
2:53 PM83 °FSunny.9 mph37%29.72 "Hg10 mi
1:53 PM81 °FSunny.9 mph41%29.74 "Hg10 mi
12:53 PM81 °FSunny.6 mph41%29.75 "Hg10 mi
11:53 AM78 °FSunny.5 mph45%29.78 "Hg10 mi
10:53 AM74 °FSunny.7 mph46%29.79 "Hg10 mi
9:53 AM71 °FSunny.No wind57%29.80 "Hg10 mi
8:53 AM66 °FSunny.6 mph73%29.80 "Hg10 mi
7:53 AM64 °FSunny.No wind78%29.78 "Hg8 mi
6:53 AM61 °FClear.3 mph65%29.77 "Hg10 mi
5:53 AM62 °FClear.No wind62%29.75 "Hg10 mi
4:53 AM63 °FClear.3 mph70%29.75 "Hg10 mi
3:53 AM65 °FClear.No wind68%29.73 "Hg10 mi
2:53 AM66 °FClear.No wind65%29.73 "Hg10 mi
1:53 AM66 °FClear.3 mph70%29.73 "Hg10 mi
12:53 AM67 °FClear.6 mph68%29.73 "Hg10 mi
11:53 PM
Sep 30
68 °FClear.6 mph70%29.73 "Hg10 mi
10:53 PM69 °FClear.3 mph68%29.74 "Hg10 mi
9:53 PM70 °FClear.5 mph64%29.73 "Hg10 mi
8:53 PM73 °FClear.5 mph57%29.73 "Hg10 mi
7:53 PM74 °FClear.No wind48%29.73 "Hg10 mi
Weather by CustomWeather, © 2014

See weather overviewHow to use our weather pages